[[{"header":{"parameterUnit":"m.s-1","parameterCategory":1,"la1":30.2992,"la2":30.254,"lo1":-89.0895,"lo2":-89.0443,"dy":0.0025,"dx":0.0025,"nx":19,"ny":19,"refTime":"2026-04-01T03:00:00:Z","depth":0,"parameterNumber":2,"parameterNumberName":"U-component_of_WINDS"},"data":[0,0,0,-3.61,-3.6102,-3.6213,-3.6213,-3.6355,-3.6356,0,0,0,0,0,0,0,0,0,0,0,-3.6067,-3.6068,-3.6099,-3.6102,-3.6213,-3.6213,-3.6355,-3.6356,0,0,0,0,0,0,0,0,0,0,0,-3.6067,-3.6068,-3.6069,-3.6103,-3.6213,-3.6213,-3.6355,-3.6271,0,0,0,0,0,0,0,0,0,0,-3.6163,-3.6133,-3.6068,-3.6069,-3.6103,-3.6213,-3.6213,-3.6267,-3.6276,-3.6305,0,-3.6331,0,-3.6346,-3.6366,-3.6366,0,0,0,-3.6102,-3.6126,-3.6156,-3.6069,-3.6104,-3.6212,-3.6163,-3.6272,-3.6282,-3.6318,-3.6333,-3.6339,-3.6349,-3.6367,-3.6368,-3.654,-3.6541,0,0,-3.6096,-3.6087,-3.6148,-3.6162,-3.6146,-3.6159,-3.6166,-3.6278,-3.6295,-3.6334,-3.6342,-3.6351,-3.6368,-3.6369,-3.654,-3.6541,0,0,0,-3.6078,-3.6082,-3.611,-3.6157,-3.6177,-3.6162,-3.617,-3.629,-3.6299,-3.6344,-3.6353,-3.6369,-3.637,-3.6539,-3.654,-3.6573,0,0,0,-3.6075,-3.6072,-3.6107,-3.6103,-3.6175,-3.6235,-3.6179,-3.6292,-3.6305,-3.6352,-3.6369,-3.6372,-3.6538,-3.6539,-3.657,-3.6589,0,0,0,-3.606,-3.6071,-3.6087,-3.6102,-3.6149,-3.6233,-3.6249,-3.6295,-3.631,-3.6367,-3.6372,-3.6537,-3.6539,-3.6568,-3.6585,-3.6633,0,0,0,-3.6041,-3.6113,-3.6087,-3.6172,-3.6148,-3.6253,-3.6248,-3.6326,-3.6379,-3.6369,-3.6538,-3.654,-3.6567,-3.6582,-3.663,-3.667,-3.6687,0,0,-3.6127,-3.6123,-3.6174,-3.6154,-3.6261,-3.6237,-3.6349,-3.6404,-3.6417,-3.6499,-3.6503,-3.6571,-3.6585,-3.6632,-3.6783,-3.6796,0,0,0,-3.6198,-3.6234,-3.6264,-3.6315,-3.6361,-3.6402,-3.6441,-3.6463,-3.6533,-3.6458,-3.6602,-3.661,-3.6638,-3.6658,-3.6669,-3.6694,-3.6549,-3.6549,-3.6549,-3.6304,-3.6319,-3.6405,-3.6434,-3.6483,-3.6526,-3.6567,-3.6603,-3.6602,-3.6636,-3.6659,-3.675,-3.6773,-3.6781,-3.6807,-3.6683,-3.6683,-3.6684,-3.6684,-3.6431,-3.6484,-3.6486,-3.6568,-3.6585,-3.6654,-3.67,-3.6697,-3.6765,-3.6732,-3.6758,-3.672,-3.6795,-3.6818,-3.6686,-3.6686,-3.6686,-3.6685,-3.6685,-3.6501,-3.6529,-3.6556,-3.6633,-3.6691,-3.6719,-3.6785,-3.6797,-3.6809,-3.6834,-3.6861,-3.6861,-3.6861,-3.6847,-3.6847,-3.6847,-3.6848,-3.6848,-3.6848,-3.6562,-3.6592,-3.6646,-3.6704,-3.674,-3.6789,-3.6836,-3.6871,-3.6914,-3.6917,-3.6917,-3.6913,-3.68,-3.677,-3.6853,-3.6852,-3.6851,-3.6851,-3.6851,-3.6682,-3.6659,-3.6742,-3.6779,-3.685,-3.6907,-3.6924,-3.6996,-3.7028,-3.706,-3.7053,-3.6967,-3.6963,-3.6954,-3.693,-3.7049,-3.7049,-3.7049,-3.7049,-3.6741,-3.6742,-3.6832,-3.689,-3.6948,-3.6973,-3.7068,-3.7107,-3.7143,-3.7163,-3.7149,-3.7118,-3.7109,-3.7111,-3.7099,-3.7076,-3.7229,-3.723,-3.723,-3.6816,-3.6824,-3.6902,-3.6938,-3.6996,-3.7045,-3.7136,-3.7203,-3.7238,-3.7237,-3.718,-3.7173,-3.7123,-3.7107,-3.7101,-3.7082,-3.7041,0,0]},{"header":{"parameterUnit":"m.s-1","parameterCategory":1,"la1":30.2992,"la2":30.254,"lo1":-89.0895,"lo2":-89.0443,"dy":0.0025,"dx":0.0025,"nx":19,"ny":19,"refTime":"2026-04-01T03:00:00:Z","depth":0,"parameterNumber":3,"parameterNumberName":"V-component_of_WINDS"},"data":[0,0,0,3.1129,3.113,3.1198,3.1199,3.1271,3.1271,0,0,0,0,0,0,0,0,0,0,0,3.11,3.11,3.1129,3.1131,3.1198,3.1199,3.1271,3.1271,0,0,0,0,0,0,0,0,0,0,0,3.11,3.11,3.11,3.1131,3.1198,3.1199,3.1271,3.1225,0,0,0,0,0,0,0,0,0,0,3.1161,3.1125,3.11,3.1101,3.1131,3.1198,3.1199,3.1223,3.1227,3.1234,0,3.1238,0,3.1256,3.1275,3.1276,0,0,0,3.1137,3.1121,3.1148,3.1101,3.1132,3.1198,3.1169,3.1225,3.1231,3.124,3.1239,3.1242,3.1257,3.1276,3.1276,3.1296,3.1296,0,0,3.1133,3.1107,3.1144,3.1151,3.114,3.1167,3.1171,3.1229,3.1225,3.1239,3.1244,3.1258,3.1276,3.1277,3.1297,3.1296,0,0,0,3.1118,3.1104,3.113,3.1148,3.1161,3.1169,3.1174,3.1223,3.1233,3.1245,3.1259,3.1276,3.1277,3.1297,3.1297,3.1263,0,0,0,3.1116,3.1095,3.1128,3.1112,3.116,3.1193,3.1166,3.1229,3.1237,3.1259,3.1276,3.1278,3.1297,3.1297,3.1264,3.1251,0,0,0,3.1099,3.1094,3.11,3.1111,3.1139,3.1192,3.1207,3.1231,3.1245,3.1276,3.1278,3.1297,3.1297,3.1266,3.1253,3.125,0,0,0,3.1072,3.1067,3.1099,3.11,3.1139,3.1171,3.1206,3.1231,3.1254,3.1277,3.1297,3.1297,3.1266,3.1254,3.1251,3.1244,3.1238,0,0,3.1051,3.1063,3.1066,3.1097,3.1117,3.1163,3.1179,3.1222,3.1248,3.1279,3.128,3.1264,3.1253,3.1251,3.1214,3.1209,0,0,0,3.105,3.1052,3.1063,3.1084,3.1119,3.1149,3.1194,3.1211,3.1239,3.1259,3.1263,3.1257,3.1257,3.1254,3.125,3.1252,3.1294,3.1294,3.1294,3.0981,3.1018,3.1025,3.107,3.1091,3.114,3.116,3.1191,3.1219,3.122,3.1229,3.1202,3.1198,3.1195,3.1197,3.1227,3.1227,3.1227,3.1227,3.0954,3.0963,3.1005,3.1027,3.1066,3.1085,3.1133,3.1153,3.1177,3.1197,3.1199,3.1217,3.1189,3.1193,3.1225,3.1225,3.1225,3.1226,3.1226,3.0913,3.0924,3.0947,3.0985,3.101,3.1056,3.1079,3.1113,3.1145,3.1146,3.1161,3.1162,3.1168,3.1151,3.1151,3.1151,3.1151,3.1151,3.1151,3.0861,3.0889,3.0904,3.0945,3.0965,3.0997,3.1049,3.107,3.1102,3.1125,3.1125,3.1155,3.1179,3.1185,3.115,3.115,3.115,3.115,3.115,3.0821,3.0837,3.086,3.0881,3.0934,3.0959,3.1003,3.1044,3.1067,3.1077,3.1108,3.1121,3.1135,3.1138,3.1143,3.1099,3.1099,3.1099,3.1099,3.0786,3.0799,3.0833,3.0865,3.09,3.0944,3.0972,3.1014,3.1059,3.1076,3.1088,3.1098,3.11,3.1113,3.1117,3.1122,3.1074,3.1074,3.1074,3.0764,3.0782,3.0798,3.0845,3.0891,3.0929,3.0957,3.0992,3.1047,3.1073,3.109,3.1091,3.1108,3.1111,3.1135,3.1141,3.1151,0,0]}]]